Back to catalog

STARLINK-34171

AliveCommunicationsVLEO
NORAD 64082·PAYLOAD·🇺🇸 United States

Launched May 21, 2025 from Cape Canaveral Space Force Station

Loading…

Next Passes (next 24 hours)

TLE

FreshSource: CelesTrak SupGP

Epoch: Sep 14, 2026, 20:58 UTC

1 64082C 25107U   26257.87409722  .00024461  00000+0  88604-3 0  2578
2 64082  43.0004 212.7815 0001096 257.7335 249.5101 15.27564473    14

Track STARLINK-34171 in real time with AllMySat

Download on the App Store